User: anonymous   Login
Location: Byszew
(52.1813°N, 19.2693°E)
Time: 21:55:45
(UTC+00:00)
Language:

Aureole 2 Rocket - Orbit

View from above orbital plane
View from above orbital plane
View from above satellite
View from above satellite

Ground track
Ground track

The orbit data is extracted from the following two-line orbital elements,

1  7004U 73107B   21134.96332666  .00103196  57697-5  26359-3 0  9998
2  7004  73.9081 115.4909 0041516 326.7836  33.0793 15.93694503459392
Epoch (UTC): 14 May 2021 23:07:11
Eccentricity: 0.0041516
inclination: 73.9081°
perigee height: 264 km
apogee height: 319 km
right ascension of ascending node: 115.4909°
argument of perigee: 326.7836°
revolutions per day: 15.93694503
mean anomaly at epoch: 33.0793°
orbit number at epoch: 45939

The dashed part of the orbit path shows where the satellite is in the earth's shadow,  

DLR